User: anonymous   Login
Location: Newark
(55.7681°N, 37.7103°E)
Time: 11:17:50
(UTC+00:00)
Language:

MOZHAYETS 4 - Orbit

View from above orbital plane
View from above orbital plane
View from above satellite
View from above satellite

Ground track
Ground track

The orbit data is extracted from the following two-line orbital elements,

1 27939U 03042A   19349.11594941  .00000020  00000-0  12164-4 0  9999
2 27939  98.0651 121.7189 0012248 215.0754 144.9622 14.66823210866844
Epoch (UTC): 15 December 2019 02:46:58
Eccentricity: 0.0012248
inclination: 98.0651°
perigee height: 662 km
apogee height: 680 km
right ascension of ascending node: 121.7189°
argument of perigee: 215.0754°
revolutions per day: 14.66823210
mean anomaly at epoch: 144.9622°
orbit number at epoch: 86684

The dashed part of the orbit path shows where the satellite is in the earth's shadow,  

DLR